Cortez, CO

4:34 PM MST on November 11, 2019 (GMT -0700)
Cortez Municipal

Weather History for KCEZ - September, 2019

Change the Weather History Date:

Saturday, September 28, 2019

  Actual Average Record
Temperature  
Mean Temperature 63 °F 56 °F  
Max Temperature 82 °F 73 °F 86 °F (2001)
Min Temperature 43 °F 38 °F 27 °F (1999)
Degree Days  
Heating Degree Days 2 10  
Month to date heating degree days 103 141  
Since 1 July heating degree days 103 153  
Cooling Degree Days 0 0  
Month to date cooling degree days 67 16  
Year to date cooling degree days 547 425  
Growing Degree Days 12 (Base 50)    
Moisture  
Dew Point 40 °F    
Average Humidity 50    
Maximum Humidity 77    
Minimum Humidity 23    
Precipitation  
Precipitation 0.00 in 0.05 in 0.87 in (2014)
Month to date precipitation 0.25 1.67  
Year to date precipitation 10.03 10.11  
Sea Level Pressure  
Sea Level Pressure 29.68 in    
Wind  
Wind Speed 12 mph (South)    
Max Wind Speed 26 mph    
Max Gust Speed 37 mph    
Visibility 10 miles    
Events      
T = Trace of Precipitation, MM = Missing Value Source: NWS Daily Summary

Daily Weather History Graph

Daily Weather History Graph

Search for Another Location

Airport or City:

Astronomy

Sep. 28, 2019 Rise Set
Actual Time 7:07 AM MDT 7:02 PM MDT
Civil Twilight 6:41 AM MDT 7:28 PM MDT
Nautical Twilight 6:10 AM MDT 7:58 PM MDT
Astronomical Twilight 5:40 AM MDT 8:29 PM MDT
Moon 6:49 AM MDT (9/28) 7:29 PM MDT (9/28)
Length of Visible Light 12h 47m
Length of Day
11h 55m
Waning Crescent, 0% of the Moon is Illuminated
Sep 28
Waning Crescent
Sep 28
New
Oct 5
First Quarter
Oct 13
Full
Oct 21
Last Quarter

Hourly Weather History & Observations

Time (MDT) Temp. Windchill Dew Point Humidity Pressure Visibility Wind Dir Wind Speed Gust Speed Precip Events Conditions
12:53 AM 50.0 °F - 39.9 °F 68% 29.73 in 10.0 mi Calm Calm - N/A   Partly Cloudy
1:53 AM 48.0 °F - 41.0 °F 77% 29.73 in 10.0 mi Calm Calm - N/A   Scattered Clouds
2:53 AM 52.0 °F - 41.0 °F 66% 29.72 in 10.0 mi Variable 4.6 mph - N/A   Clear
3:53 AM 46.0 °F 44.8 °F 39.0 °F 76% 29.72 in 10.0 mi East 3.5 mph - N/A   Clear
4:53 AM 46.9 °F - 39.0 °F 74% 29.71 in 10.0 mi Calm Calm - N/A   Clear
5:53 AM 45.0 °F 42.6 °F 37.9 °F 76% 29.74 in 10.0 mi East 4.6 mph - N/A   Clear
6:53 AM 45.0 °F 41.2 °F 37.9 °F 76% 29.76 in 10.0 mi East 6.9 mph - N/A   Clear
7:53 AM 46.0 °F - 37.9 °F 73% 29.79 in 10.0 mi Calm Calm - N/A   Clear
8:53 AM 55.9 °F - 42.1 °F 60% 29.78 in 10.0 mi Calm Calm - N/A   Clear
9:53 AM 68.0 °F - 43.0 °F 40% 29.75 in 10.0 mi SSE 15.0 mph 20.7 mph N/A   Clear
10:53 AM 72.0 °F - 44.1 °F 37% 29.75 in 10.0 mi South 15.0 mph 21.9 mph N/A   Clear
11:53 AM 73.9 °F - 45.0 °F 35% 29.73 in 10.0 mi SSE 15.0 mph 21.9 mph N/A   Clear
12:53 PM 77.0 °F - 44.1 °F 31% 29.70 in 10.0 mi South 13.8 mph 25.3 mph N/A   Clear
1:53 PM 75.0 °F - 43.0 °F 32% 29.68 in 10.0 mi South 16.1 mph 23.0 mph N/A   Mostly Cloudy
2:53 PM 75.9 °F - 39.0 °F 26% 29.62 in 10.0 mi SSE 16.1 mph 25.3 mph N/A   Mostly Cloudy
3:53 PM 80.1 °F - 39.9 °F 24% 29.61 in 10.0 mi South 13.8 mph 24.2 mph N/A   Mostly Cloudy
4:53 PM 80.1 °F - 39.9 °F 24% 29.59 in 10.0 mi SSW 16.1 mph 24.2 mph N/A   Scattered Clouds
5:53 PM 79.0 °F - 39.9 °F 25% 29.59 in 10.0 mi South 13.8 mph 25.3 mph N/A   Mostly Cloudy
6:53 PM 73.0 °F - 35.1 °F 25% 29.61 in 10.0 mi SSW 12.7 mph 23.0 mph N/A   Scattered Clouds
7:53 PM 70.0 °F - 37.0 °F 30% 29.63 in 10.0 mi SSW 11.5 mph - N/A   Clear
8:53 PM 70.0 °F - 35.1 °F 28% 29.61 in 10.0 mi SSW 19.6 mph - N/A   Clear
9:53 PM 69.1 °F - 39.9 °F 35% 29.60 in 10.0 mi SSW 18.4 mph 28.8 mph N/A   Clear
10:53 PM 66.9 °F - 39.9 °F 37% 29.62 in 10.0 mi South 18.4 mph - N/A   Partly Cloudy
11:53 PM 66.9 °F - 42.1 °F 40% 29.63 in 10.0 mi SSW 20.7 mph - N/A   Partly Cloudy